Location: ?????????
(53.2086°N, 54.0693°E)
Time: 04:57:17
(UTC+00:00)

Cosmos 1862 Rocket - Pass Details

Date: 08 December 2019
Orbit: 604 x 634 km, 82.5° (Epoch: 25 January)

Event Time Altitude Azimuth Distance (km) Brightness Sun altitude
Rises 14:37:26 0° 203° (SSW) 2,862 7.4 -21.2°
Reaches altitude 10° 14:39:41 10° 209° (SSW) 1,966 6.6 -21.6°
Maximum altitude 14:43:55 52° 286° (WNW) 773 4.3 -22.2°
Enters shadow 14:47:39 14° 1° (N) 1,763 5.8 -22.7°
